Location: Brompton
(51.4000°N, 0.5333°E)
Time: 03:56:07
(UTC+00:00)

ERBS - Pass Details

Date: 11 May 2021
Orbit: 400 x 417 km, 57.0° (Epoch: 13 June)

Event Time Altitude Azimuth Distance (km) Brightness Sun altitude
Rises 23:11:13 0° 299° (WNW) 2,355 6.6 -19.8°
Reaches altitude 10° 23:13:19 10° 294° (WNW) 1,493 5.5 -19.9°
Enters shadow 23:15:53 43° 262° (W) 597 2.9 -20.0°
